STARLINK-32168 (60335 NORAD) Tracking and Keplerian Element Data

This shows tracking and keplerian element data for the satellite.

Feedback or suggestion? Click here.




ElementValue
Catalog60335
NameSTARLINK-32168
Epoch Orbit1225
Epoch Day286.51784185
Epoch Year2024
RAAN299.4375
Inclination53.1616
Eccentricity0.000112
Argument of Perigee78.1602
Mean Anonmoly281.9524
Mean Motion15.30194774
Decay Rate-2.63E-05
L11 60335U 24136G 24286.51784185 -.00002630 00000+0 -76710-4 0 9991
L22 60335 53.1616 299.4375 0001120 78.1602 281.9524 15.30194774 12250



Live tracking and technical data element details for STARLINK-32168 (NORAD 60335). STARLINK-32168 can be tracked NOW for your location showing map with azimuth and elevation plus other details from your city location.







IsCatalogInMostPopularTable: catalog: 60335, numindb: 8
Update: records affected: 1



GetName: 60335 STARLINK-32168

Hit Count: updated at: Tue, 03 Dec 2024 01:15:39 GMT